Weather in Cambrai

France     50°10′39″N   3°14′41″E
temp.,
°C
wind,
m/s
gust,
m/s
humid.,
%
clouds,
%
prec.,
mm/h
press.,
hPa
HPBL,
m
13 april, tue
tue1323:000nne22833 0.1 103220
02:00−1ne11800 0.1 103310
05:00−2nne11750 0.0 103310
08:000nne11754 0.0 103426
11:00+6nne34625 0.0 1034945
14:00+9nne33425 0.0 10331810
17:00+10n233778 0.0 10322217
20:00+6ne235772 0.0 103142
14 april, wed
wed1423:00+2ne336362 0.0 103330
02:000ene226218 0.0 103312
05:00−1ene11595 0.0 103210
08:00+1nne11585 0.0 103212
11:00+7nne22465 0.0 1032616
14:00+9nne334388 0.0 10302138
17:00+10nne454181 0.0 10292083
20:00+5nne5106111 0.0 1030412
15 april, thu
thu1523:00+1nne39825 0.0 1031180
02:000nne38945 0.0 1031163
05:00−1nne33935 0.0 103152
08:00+1n249127 0.0 1031120
11:00+3n2395100 0.9 1030400
14:00+7ene34676 1.1 10291011
17:00+10ene6646100 0.1 10272011
20:00+6ne486832 0.1 1028170
16 april, fri
fri1623:00+2ne48785 0.0 1029148
02:00+1ne49805 0.0 1029157
05:00−1ne36865 0.0 102985
08:00+1nne38905 0.0 1029235
11:00+7ne68595 0.0 1029956
14:00+10ne795098 0.0 10281833
17:00+10ne5959100 0.0 10261806
20:00+8nne61171100 0.0 1027505
17 april, sat
sat1723:00+6n4972100 0.0 1027262
02:00+6nne3876100 0.0 1027255
05:00+6nne4979100 0.0 1026307
08:00+2n37895 0.0 1026208
11:00+9nne46665 0.0 1027798
14:00+12nne555323 0.0 10251681
17:00+13nne56485 0.0 10241772
20:00+9ne35640 0.0 102481